| time (UTC) | temp C | wind direction | speed KPH | gust KPH | rain 1hr cm | rain 24hr cm | rain mn cm | humidity % | barometer mb |
| 20260905091503 | 22 | 304 | 0.0 | 3.2 | 0.00 | 0.00 | 0.00 | 73 | 1009.5 |
| 20260905091004 | 22 | 304 | 0.0 | 3.2 | 0.00 | 0.00 | 0.00 | 73 | 1009.6 |
| 20260905090503 | 22 | 304 | 1.6 | 3.2 | 0.00 | 0.00 | 0.00 | 73 | 1009.6 |
| 20260905090004 | 23 | 304 | 0.0 | 0.0 | 0.00 | 0.00 | 0.00 | 73 | 1009.6 |
| 20260905085503 | 23 | 304 | 0.0 | 1.6 | 0.00 | 0.00 | 0.00 | 73 | 1009.7 |
| 20260905085004 | 23 | 304 | 0.0 | 1.6 | 0.00 | 0.00 | 0.00 | 73 | 1009.6 |
| 20260905084503 | 23 | 304 | 1.6 | 3.2 | 0.00 | 0.00 | 0.00 | 73 | 1009.6 |
| 20260905084004 | 23 | 304 | 1.6 | 3.2 | 0.00 | 0.00 | 0.00 | 73 | 1009.5 |
| 20260905083503 | 23 | 304 | 0.0 | 0.0 | 0.00 | 0.00 | 0.00 | 73 | 1009.6 |
| 20260905083004 | 23 | 304 | 1.6 | 3.2 | 0.00 | 0.00 | 0.00 | 73 | 1009.6 |
| 20260905082503 | 23 | 304 | 0.0 | 0.0 | 0.00 | 0.00 | 0.00 | 73 | 1009.6 |
| 20260905082004 | 23 | 304 | 0.0 | 3.2 | 0.00 | 0.00 | 0.00 | 73 | 1009.6 |
| 20260905081503 | 23 | 218 | 0.0 | 0.0 | 0.00 | 0.00 | 0.00 | 73 | 1009.6 |
| 20260905081004 | 23 | 216 | 0.0 | 3.2 | 0.00 | 0.00 | 0.00 | 73 | 1009.7 |
| 20260905080504 | 23 | 358 | 0.0 | 1.6 | 0.00 | 0.00 | 0.00 | 72 | 1009.8 |
| 20260905080003 | 23 | 358 | 0.0 | 0.0 | 0.00 | 0.00 | 0.00 | 72 | 1009.6 |
| 20260905075504 | 23 | 358 | 0.0 | 0.0 | 0.00 | 0.00 | 0.00 | 72 | 1009.6 |
| 20260905075003 | 23 | 358 | 0.0 | 1.6 | 0.00 | 0.00 | 0.00 | 72 | 1009.6 |
| 20260905074504 | 23 | 358 | 0.0 | 1.6 | 0.00 | 0.00 | 0.00 | 72 | 1009.6 |
| 20260905074004 | 23 | 358 | 1.6 | 3.2 | 0.00 | 0.00 | 0.00 | 72 | 1009.6 |
| 20260905073503 | 23 | 358 | 1.6 | 4.8 | 0.00 | 0.00 | 0.00 | 72 | 1009.6 |
| 20260905073004 | 23 | 292 | 1.6 | 3.2 | 0.00 | 0.00 | 0.00 | 72 | 1009.6 |
| 20260905072503 | 23 | 292 | 0.0 | 3.2 | 0.00 | 0.00 | 0.00 | 72 | 1009.6 |
| 20260905072004 | 23 | 292 | 1.6 | 4.8 | 0.00 | 0.00 | 0.00 | 72 | 1009.8 |
| 20260905071503 | 23 | 321 | 1.6 | 4.8 | 0.00 | 0.00 | 0.00 | 72 | 1009.8 |
| 20260905071003 | 23 | 350 | 1.6 | 4.8 | 0.00 | 0.00 | 0.00 | 72 | 1009.7 |
| 20260905070504 | 23 | 271 | 3.2 | 4.8 | 0.00 | 0.00 | 0.00 | 71 | 1009.7 |
| 20260905070004 | 23 | 313 | 0.0 | 4.8 | 0.00 | 0.00 | 0.00 | 71 | 1009.7 |
| 20260905065504 | 23 | 329 | 1.6 | 4.8 | 0.00 | 0.00 | 0.00 | 71 | 1009.7 |
| 20260905065004 | 23 | 302 | 0.0 | 3.2 | 0.00 | 0.00 | 0.00 | 71 | 1009.7 |
| 20260905064503 | 23 | 302 | 1.6 | 4.8 | 0.00 | 0.00 | 0.00 | 71 | 1009.7 |
| 20260905064004 | 23 | 302 | 1.6 | 3.2 | 0.00 | 0.00 | 0.00 | 71 | 1009.7 |
| 20260905063503 | 23 | 302 | 3.2 | 4.8 | 0.00 | 0.00 | 0.00 | 71 | 1009.7 |
| 20260905063003 | 23 | 297 | 1.6 | 4.8 | 0.00 | 0.00 | 0.00 | 71 | 1009.8 |
| 20260905062503 | 23 | 296 | 3.2 | 8.0 | 0.00 | 0.00 | 0.00 | 71 | 1009.8 |
| 20260905062004 | 23 | 305 | 3.2 | 4.8 | 0.00 | 0.00 | 0.00 | 71 | 1009.8 |
| 20260905061504 | 23 | 318 | 3.2 | 8.0 | 0.00 | 0.00 | 0.00 | 71 | 1009.8 |
| 20260905061004 | 23 | 318 | 3.2 | 4.8 | 0.00 | 0.00 | 0.00 | 71 | 1009.8 |
| 20260905060503 | 23 | 11 | 1.6 | 4.8 | 0.00 | 0.00 | 0.00 | 71 | 1009.9 |
| 20260905060003 | 23 | 296 | 1.6 | 3.2 | 0.00 | 0.00 | 0.00 | 71 | 1010.0 |
| 20260905055504 | 23 | 297 | 3.2 | 4.8 | 0.00 | 0.00 | 0.00 | 71 | 1010.0 |
| 20260905055003 | 23 | 318 | 0.0 | 4.8 | 0.00 | 0.00 | 0.00 | 71 | 1010.1 |
| 20260905054504 | 23 | 353 | 0.0 | 3.2 | 0.00 | 0.00 | 0.00 | 71 | 1010.1 |
| 20260905054003 | 23 | 353 | 1.6 | 3.2 | 0.00 | 0.00 | 0.00 | 71 | 1010.2 |
| 20260905053504 | 23 | 351 | 3.2 | 4.8 | 0.00 | 0.00 | 0.00 | 71 | 1010.2 |
| 20260905053003 | 24 | 308 | 0.0 | 3.2 | 0.00 | 0.00 | 0.00 | 71 | 1010.2 |
| 20260905052504 | 24 | 308 | 0.0 | 3.2 | 0.00 | 0.00 | 0.00 | 70 | 1010.3 |
| 20260905052003 | 24 | 308 | 0.0 | 3.2 | 0.00 | 0.00 | 0.00 | 70 | 1010.4 |
| 20260905051504 | 24 | 309 | 1.6 | 4.8 | 0.00 | 0.00 | 0.00 | 70 | 1010.4 |
| 20260905051003 | 24 | 309 | 0.0 | 0.0 | 0.00 | 0.00 | 0.00 | 70 | 1010.4 |
| 20260905050503 | 24 | 307 | 0.0 | 3.2 | 0.00 | 0.00 | 0.00 | 70 | 1010.5 |
| 20260905050004 | 24 | 325 | 1.6 | 4.8 | 0.00 | 0.00 | 0.00 | 70 | 1010.5 |
| 20260905045503 | 24 | 335 | 0.0 | 4.8 | 0.00 | 0.00 | 0.00 | 70 | 1010.5 |
| 20260905045004 | 24 | 307 | 0.0 | 4.8 | 0.00 | 0.00 | 0.00 | 70 | 1010.6 |
| 20260905044503 | 24 | 302 | 1.6 | 4.8 | 0.00 | 0.00 | 0.00 | 70 | 1010.6 |
| 20260905044004 | 24 | 267 | 0.0 | 4.8 | 0.00 | 0.00 | 0.00 | 70 | 1010.7 |
| 20260905043503 | 24 | 12 | 1.6 | 8.0 | 0.00 | 0.00 | 0.00 | 70 | 1010.6 |
| 20260905043004 | 25 | 343 | 1.6 | 8.0 | 0.00 | 0.00 | 0.00 | 70 | 1010.7 |
| 20260905042503 | 25 | 338 | 0.0 | 4.8 | 0.00 | 0.00 | 0.00 | 70 | 1010.8 |
| 20260905042004 | 25 | 301 | 1.6 | 4.8 | 0.00 | 0.00 | 0.00 | 70 | 1010.8 |
| 20260905041504 | 25 | 308 | 1.6 | 4.8 | 0.00 | 0.00 | 0.00 | 70 | 1010.8 |
| 20260905041003 | 25 | 317 | 1.6 | 4.8 | 0.00 | 0.00 | 0.00 | 70 | 1010.9 |
| 20260905040503 | 25 | 312 | 1.6 | 4.8 | 0.00 | 0.00 | 0.00 | 70 | 1010.8 |
| 20260905040004 | 25 | 324 | 0.0 | 3.2 | 0.00 | 0.00 | 0.00 | 70 | 1010.9 |
| 20260905035504 | 25 | 324 | 1.6 | 3.2 | 0.00 | 0.00 | 0.00 | 70 | 1010.8 |
| 20260905035003 | 25 | 324 | 1.6 | 3.2 | 0.00 | 0.00 | 0.00 | 70 | 1010.8 |
| 20260905034504 | 25 | 304 | 1.6 | 3.2 | 0.00 | 0.00 | 0.00 | 70 | 1010.7 |
| 20260905034003 | 25 | 304 | 1.6 | 3.2 | 0.00 | 0.00 | 0.00 | 70 | 1010.8 |
| 20260905033503 | 25 | 304 | 0.0 | 3.2 | 0.00 | 0.00 | 0.00 | 70 | 1010.5 |
| 20260905033004 | 25 | 304 | 0.0 | 1.6 | 0.00 | 0.00 | 0.00 | 70 | 1010.5 |
| 20260905032504 | 25 | 304 | 0.0 | 1.6 | 0.00 | 0.00 | 0.00 | 70 | 1010.6 |
| 20260905032003 | 25 | 304 | 1.6 | 4.8 | 0.00 | 0.00 | 0.00 | 70 | 1010.6 |
| 20260905031503 | 25 | 313 | 0.0 | 3.2 | 0.00 | 0.00 | 0.00 | 69 | 1010.6 |
| 20260905031004 | 25 | 313 | 0.0 | 1.6 | 0.00 | 0.00 | 0.00 | 69 | 1010.7 |
| 20260905030503 | 25 | 313 | 0.0 | 3.2 | 0.00 | 0.00 | 0.00 | 69 | 1010.5 |
| 20260905030004 | 26 | 313 | 0.0 | 1.6 | 0.00 | 0.00 | 0.00 | 69 | 1010.5 |
| 20260905025504 | 26 | 313 | 0.0 | 1.6 | 0.00 | 0.00 | 0.00 | 69 | 1010.5 |
| 20260905025003 | 26 | 313 | 0.0 | 3.2 | 0.00 | 0.00 | 0.00 | 69 | 1010.5 |
| 20260905024503 | 26 | 313 | 0.0 | 3.2 | 0.00 | 0.00 | 0.00 | 69 | 1010.4 |
| 20260905024003 | 26 | 313 | 1.6 | 3.2 | 0.00 | 0.00 | 0.00 | 69 | 1010.5 |
| 20260905023504 | 26 | 313 | 0.0 | 4.8 | 0.00 | 0.00 | 0.00 | 69 | 1010.4 |
| 20260905023003 | 26 | 313 | 1.6 | 4.8 | 0.00 | 0.00 | 0.00 | 69 | 1010.4 |
| 20260905022504 | 26 | 313 | 1.6 | 4.8 | 0.00 | 0.00 | 0.00 | 69 | 1010.4 |
| 20260905022003 | 26 | 313 | 1.6 | 4.8 | 0.00 | 0.00 | 0.00 | 69 | 1010.4 |
| 20260905021503 | 26 | 313 | 3.2 | 4.8 | 0.00 | 0.00 | 0.00 | 69 | 1010.5 |
| 20260905021004 | 26 | 313 | 1.6 | 4.8 | 0.00 | 0.00 | 0.00 | 70 | 1010.5 |
| 20260905020504 | 26 | 313 | 3.2 | 4.8 | 0.00 | 0.00 | 0.00 | 70 | 1010.4 |
| 20260905020004 | 26 | 307 | 0.0 | 4.8 | 0.00 | 0.00 | 0.00 | 70 | 1010.6 |
| 20260905015504 | 26 | 307 | 0.0 | 1.6 | 0.00 | 0.00 | 0.00 | 70 | 1010.5 |
| 20260905015004 | 26 | 307 | 1.6 | 4.8 | 0.00 | 0.00 | 0.00 | 71 | 1010.6 |
| 20260905014503 | 26 | 307 | 3.2 | 4.8 | 0.00 | 0.00 | 0.00 | 71 | 1010.4 |
| 20260905014003 | 26 | 307 | 0.0 | 0.0 | 0.00 | 0.00 | 0.00 | 71 | 1010.4 |
| 20260905013503 | 26 | 307 | 0.0 | 1.6 | 0.00 | 0.00 | 0.00 | 71 | 1010.6 |
| 20260905013003 | 26 | 307 | 1.6 | 3.2 | 0.00 | 0.00 | 0.00 | 71 | 1010.6 |
| 20260905012503 | 26 | 307 | 0.0 | 4.8 | 0.00 | 0.00 | 0.00 | 71 | 1010.6 |
| 20260905012003 | 27 | 307 | 0.0 | 1.6 | 0.00 | 0.00 | 0.00 | 71 | 1010.6 |
| 20260905011504 | 27 | 307 | 0.0 | 3.2 | 0.00 | 0.00 | 0.00 | 70 | 1010.6 |
| 20260905011004 | 27 | 307 | 1.6 | 3.2 | 0.00 | 0.00 | 0.00 | 71 | 1010.5 |
| 20260905010503 | 27 | 307 | 1.6 | 4.8 | 0.00 | 0.00 | 0.00 | 71 | 1010.3 |
| 20260905010004 | 27 | 307 | 1.6 | 4.8 | 0.00 | 0.00 | 0.00 | 71 | 1010.3 |
| 20260905005504 | 27 | 307 | 3.2 | 4.8 | 0.00 | 0.00 | 0.00 | 70 | 1010.2 |
| 20260905005004 | 27 | 292 | 1.6 | 4.8 | 0.00 | 0.00 | 0.00 | 70 | 1010.3 |
| 20260905004504 | 27 | 315 | 3.2 | 4.8 | 0.00 | 0.00 | 0.00 | 70 | 1010.3 |
| 20260905004004 | 27 | 358 | 1.6 | 4.8 | 0.00 | 0.00 | 0.00 | 69 | 1010.2 |
| 20260905003503 | 27 | 6 | 1.6 | 3.2 | 0.00 | 0.00 | 0.00 | 69 | 1010.1 |
| 20260905003004 | 27 | 14 | 0.0 | 3.2 | 0.00 | 0.00 | 0.00 | 68 | 1010.0 |
| 20260905002503 | 27 | 38 | 0.0 | 0.0 | 0.00 | 0.00 | 0.00 | 68 | 1009.9 |
| 20260905002004 | 27 | 38 | 0.0 | 1.6 | 0.00 | 0.00 | 0.00 | 68 | 1010.0 |
| 20260905001503 | 27 | 38 | 1.6 | 4.8 | 0.00 | 0.00 | 0.00 | 68 | 1009.9 |
| 20260905001004 | 27 | 301 | 1.6 | 4.8 | 0.00 | 0.00 | 0.00 | 68 | 1010.0 |
| 20260905000504 | 27 | 302 | 1.6 | 4.8 | 0.00 | 0.00 | 0.00 | 68 | 1010.1 |
| 20260905000004 | 28 | 246 | 0.0 | 1.6 | 0.00 | 0.00 | 0.00 | 68 | 1010.1 |
| 20260904235503 | 28 | 246 | 0.0 | 1.6 | 0.00 | 0.00 | 0.00 | 67 | 1010.1 |
| 20260904235004 | 28 | 246 | 0.0 | 1.6 | 0.00 | 0.00 | 0.00 | 67 | 1010.2 |
| 20260904234504 | 28 | 246 | 0.0 | 1.6 | 0.00 | 0.00 | 0.00 | 67 | 1010.0 |
| 20260904234003 | 28 | 246 | 0.0 | 3.2 | 0.00 | 0.00 | 0.00 | 67 | 1010.2 |
| 20260904233504 | 28 | 246 | 1.6 | 3.2 | 0.00 | 0.00 | 0.00 | 66 | 1010.3 |
| 20260904233003 | 28 | 246 | 0.0 | 3.2 | 0.00 | 0.00 | 0.00 | 66 | 1010.3 |
| 20260904232504 | 28 | 246 | 0.0 | 1.6 | 0.00 | 0.00 | 0.00 | 65 | 1010.2 |
| 20260904232003 | 28 | 246 | 1.6 | 3.2 | 0.00 | 0.00 | 0.00 | 65 | 1010.2 |
| 20260904231503 | 28 | 300 | 1.6 | 3.2 | 0.00 | 0.00 | 0.00 | 65 | 1010.2 |
| 20260904231004 | 28 | 300 | 1.6 | 3.2 | 0.00 | 0.00 | 0.00 | 64 | 1010.2 |
| 20260904230504 | 28 | 252 | 1.6 | 4.8 | 0.00 | 0.00 | 0.00 | 64 | 1010.1 |
| 20260904230003 | 28 | 215 | 1.6 | 4.8 | 0.00 | 0.00 | 0.00 | 64 | 1010.2 |
| 20260904225504 | 28 | 252 | 0.0 | 8.0 | 0.00 | 0.00 | 0.00 | 64 | 1010.2 |
| 20260904225004 | 29 | 271 | 1.6 | 4.8 | 0.00 | 0.00 | 0.00 | 64 | 1010.2 |
| 20260904224503 | 29 | 294 | 3.2 | 4.8 | 0.00 | 0.00 | 0.00 | 63 | 1010.3 |
| 20260904224004 | 29 | 344 | 3.2 | 8.0 | 0.00 | 0.00 | 0.00 | 63 | 1010.3 |
| 20260904223503 | 29 | 310 | 4.8 | 14.5 | 0.00 | 0.00 | 0.00 | 63 | 1010.3 |
| 20260904223003 | 29 | 307 | 3.2 | 11.3 | 0.00 | 0.00 | 0.00 | 63 | 1010.3 |
| 20260904222504 | 29 | 273 | 3.2 | 8.0 | 0.00 | 0.00 | 0.00 | 63 | 1010.3 |
| 20260904222004 | 29 | 231 | 1.6 | 4.8 | 0.00 | 0.00 | 0.00 | 63 | 1010.2 |
| 20260904221505 | 29 | 258 | 3.2 | 8.0 | 0.00 | 0.00 | 0.00 | 62 | 1010.2 |
| 20260904221004 | 29 | 224 | 3.2 | 8.0 | 0.00 | 0.00 | 0.00 | 62 | 1010.1 |
| 20260904220503 | 29 | 208 | 1.6 | 8.0 | 0.00 | 0.00 | 0.00 | 62 | 1010.1 |
| 20260904220004 | 30 | 293 | 3.2 | 9.7 | 0.00 | 0.00 | 0.00 | 61 | 1010.1 |
| 20260904215504 | 30 | 252 | 1.6 | 9.7 | 0.00 | 0.00 | 0.00 | 61 | 1010.1 |
| 20260904215003 | 30 | 7 | 1.6 | 11.3 | 0.00 | 0.00 | 0.00 | 60 | 1010.0 |
| 20260904214504 | 30 | 261 | 1.6 | 4.8 | 0.00 | 0.00 | 0.00 | 60 | 1010.0 |
| 20260904214003 | 30 | 125 | 1.6 | 11.3 | 0.00 | 0.00 | 0.00 | 59 | 1010.2 |
| 20260904213503 | 30 | 298 | 3.2 | 9.7 | 0.00 | 0.00 | 0.00 | 59 | 1010.2 |
| 20260904213004 | 30 | 260 | 3.2 | 4.8 | 0.00 | 0.00 | 0.00 | 59 | 1010.0 |
| 20260904212503 | 30 | 66 | 1.6 | 8.0 | 0.00 | 0.00 | 0.00 | 58 | 1009.9 |
| 20260904212004 | 30 | 279 | 4.8 | 9.7 | 0.00 | 0.00 | 0.00 | 58 | 1009.9 |
| 20260904211504 | 31 | 320 | 1.6 | 4.8 | 0.00 | 0.00 | 0.00 | 59 | 1010.0 |
| 20260904211003 | 31 | 241 | 1.6 | 4.8 | 0.00 | 0.00 | 0.00 | 59 | 1010.0 |
| 20260904210504 | 31 | 9 | 1.6 | 4.8 | 0.00 | 0.00 | 0.00 | 59 | 1010.0 |
| 20260904210003 | 31 | 279 | 8.0 | 16.1 | 0.00 | 0.00 | 0.00 | 59 | 1010.0 |
| 20260904205504 | 31 | 311 | 1.6 | 8.0 | 0.00 | 0.00 | 0.00 | 60 | 1010.1 |
| 20260904205003 | 30 | 331 | 4.8 | 9.7 | 0.00 | 0.00 | 0.00 | 61 | 1010.1 |
| 20260904204504 | 30 | 290 | 1.6 | 4.8 | 0.00 | 0.00 | 0.00 | 61 | 1010.1 |
| 20260904204004 | 30 | 327 | 4.8 | 8.0 | 0.00 | 0.00 | 0.00 | 59 | 1010.1 |
| 20260904203504 | 31 | 278 | 3.2 | 8.0 | 0.00 | 0.00 | 0.00 | 59 | 1010.2 |
| 20260904203004 | 31 | 294 | 1.6 | 11.3 | 0.00 | 0.00 | 0.00 | 58 | 1010.1 |
| 20260904202504 | 31 | 236 | 1.6 | 8.0 | 0.00 | 0.00 | 0.00 | 57 | 1010.3 |
| 20260904202004 | 31 | 283 | 3.2 | 11.3 | 0.00 | 0.00 | 0.00 | 56 | 1010.4 |
| 20260904201504 | 32 | 5 | 3.2 | 4.8 | 0.00 | 0.00 | 0.00 | 56 | 1010.3 |
| 20260904201003 | 32 | 290 | 3.2 | 11.3 | 0.00 | 0.00 | 0.00 | 55 | 1010.5 |
| 20260904200503 | 32 | 275 | 1.6 | 4.8 | 0.00 | 0.00 | 0.00 | 54 | 1010.5 |
| 20260904200003 | 32 | 325 | 4.8 | 12.9 | 0.00 | 0.00 | 0.00 | 55 | 1010.5 |
| 20260904195503 | 32 | 148 | 3.2 | 16.1 | 0.00 | 0.00 | 0.00 | 53 | 1010.4 |
| 20260904195003 | 33 | 277 | 3.2 | 12.9 | 0.00 | 0.00 | 0.00 | 54 | 1010.7 |
| 20260904194504 | 33 | 247 | 3.2 | 8.0 | 0.00 | 0.00 | 0.00 | 53 | 1010.7 |
| 20260904194004 | 33 | 255 | 8.0 | 19.3 | 0.00 | 0.00 | 0.00 | 54 | 1010.8 |
| 20260904193504 | 33 | 237 | 3.2 | 19.3 | 0.00 | 0.00 | 0.00 | 55 | 1011.0 |
| 20260904193004 | 32 | 243 | 3.2 | 11.3 | 0.00 | 0.00 | 0.00 | 54 | 1010.9 |
| 20260904192504 | 32 | 164 | 3.2 | 9.7 | 0.00 | 0.00 | 0.00 | 56 | 1011.0 |
| 20260904192003 | 32 | 142 | 4.8 | 16.1 | 0.00 | 0.00 | 0.00 | 55 | 1010.9 |
| 20260904191503 | 32 | 257 | 3.2 | 19.3 | 0.00 | 0.00 | 0.00 | 57 | 1011.0 |
| 20260904191004 | 32 | 254 | 9.7 | 19.3 | 0.00 | 0.00 | 0.00 | 56 | 1011.0 |
| 20260904190503 | 32 | 268 | 3.2 | 9.7 | 0.00 | 0.00 | 0.00 | 57 | 1011.0 |
| 20260904190004 | 32 | 137 | 4.8 | 12.9 | 0.00 | 0.00 | 0.00 | 56 | 1011.0 |
| 20260904185503 | 32 | 315 | 3.2 | 16.1 | 0.00 | 0.00 | 0.00 | 57 | 1011.0 |
| 20260904185003 | 32 | 219 | 3.2 | 8.0 | 0.00 | 0.00 | 0.00 | 57 | 1011.1 |
| 20260904184504 | 32 | 318 | 6.4 | 12.9 | 0.00 | 0.00 | 0.00 | 55 | 1011.1 |
| 20260904184003 | 32 | 5 | 3.2 | 11.3 | 0.00 | 0.00 | 0.00 | 55 | 1011.2 |
| 20260904183504 | 32 | 268 | 6.4 | 19.3 | 0.00 | 0.00 | 0.00 | 56 | 1011.2 |
| 20260904183003 | 32 | 64 | 8.0 | 16.1 | 0.00 | 0.00 | 0.00 | 54 | 1011.2 |
| 20260904182503 | 32 | 284 | 4.8 | 11.3 | 0.00 | 0.00 | 0.00 | 54 | 1011.2 |
| 20260904182004 | 32 | 277 | 3.2 | 9.7 | 0.00 | 0.00 | 0.00 | 54 | 1011.2 |
| 20260904181503 | 32 | 152 | 4.8 | 14.5 | 0.00 | 0.00 | 0.00 | 54 | 1011.3 |
| 20260904181004 | 32 | 232 | 4.8 | 14.5 | 0.00 | 0.00 | 0.00 | 54 | 1011.2 |
| 20260904180504 | 32 | 313 | 6.4 | 14.5 | 0.00 | 0.00 | 0.00 | 53 | 1011.3 |
| 20260904180003 | 32 | 250 | 4.8 | 12.9 | 0.00 | 0.00 | 0.00 | 53 | 1011.2 |
| 20260904175503 | 32 | 215 | 4.8 | 14.5 | 0.00 | 0.00 | 0.00 | 54 | 1011.1 |
| 20260904175004 | 32 | 325 | 4.8 | 11.3 | 0.00 | 0.00 | 0.00 | 54 | 1011.2 |
| 20260904174504 | 32 | 270 | 4.8 | 8.0 | 0.00 | 0.00 | 0.00 | 54 | 1011.2 |
| 20260904174003 | 32 | 257 | 3.2 | 12.9 | 0.00 | 0.00 | 0.00 | 56 | 1011.2 |
| 20260904173503 | 32 | 220 | 3.2 | 14.5 | 0.00 | 0.00 | 0.00 | 56 | 1011.2 |
| 20260904173004 | 31 | 311 | 4.8 | 12.9 | 0.00 | 0.00 | 0.00 | 55 | 1011.2 |
| 20260904172503 | 31 | 324 | 6.4 | 14.5 | 0.00 | 0.00 | 0.00 | 55 | 1011.1 |
| 20260904172003 | 31 | 340 | 4.8 | 19.3 | 0.00 | 0.00 | 0.00 | 55 | 1011.2 |
| 20260904171503 | 31 | 317 | 4.8 | 16.1 | 0.00 | 0.00 | 0.00 | 55 | 1011.2 |
| 20260904171004 | 32 | 307 | 6.4 | 16.1 | 0.00 | 0.00 | 0.00 | 54 | 1011.1 |
| 20260904170503 | 32 | 331 | 4.8 | 14.5 | 0.00 | 0.00 | 0.00 | 54 | 1011.2 |
| 20260904170003 | 31 | 355 | 4.8 | 12.9 | 0.00 | 0.00 | 0.00 | 55 | 1011.2 |
| 20260904165504 | 31 | 351 | 4.8 | 4.8 | 0.00 | 0.00 | 0.00 | 57 | 1011.2 |
| 20260904165003 | 31 | 205 | 4.8 | 12.9 | 0.00 | 0.00 | 0.00 | 57 | 1011.2 |
| 20260904164504 | 31 | 252 | 3.2 | 9.7 | 0.00 | 0.00 | 0.00 | 58 | 1011.2 |
| 20260904164004 | 31 | 171 | 3.2 | 11.3 | 0.00 | 0.00 | 0.00 | 58 | 1011.1 |
| 20260904163503 | 31 | 312 | 3.2 | 8.0 | 0.00 | 0.00 | 0.00 | 57 | 1011.3 |
| 20260904163003 | 31 | 329 | 3.2 | 12.9 | 0.00 | 0.00 | 0.00 | 57 | 1011.3 |
| 20260904162503 | 31 | 294 | 8.0 | 16.1 | 0.00 | 0.00 | 0.00 | 56 | 1011.3 |
| 20260904162004 | 31 | 323 | 9.7 | 19.3 | 0.00 | 0.00 | 0.00 | 57 | 1011.2 |
| 20260904161503 | 31 | 327 | 4.8 | 12.9 | 0.00 | 0.00 | 0.00 | 59 | 1011.3 |
| 20260904161004 | 31 | 12 | 4.8 | 12.9 | 0.00 | 0.00 | 0.00 | 60 | 1011.4 |
| 20260904160504 | 31 | 353 | 4.8 | 16.1 | 0.00 | 0.00 | 0.00 | 59 | 1011.4 |
| 20260904160003 | 31 | 3 | 9.7 | 19.3 | 0.00 | 0.00 | 0.00 | 59 | 1011.5 |
| 20260904155504 | 31 | 286 | 4.8 | 16.1 | 0.00 | 0.00 | 0.00 | 58 | 1011.4 |
| 20260904155004 | 31 | 0 | 8.0 | 16.1 | 0.00 | 0.00 | 0.00 | 59 | 1011.3 |
| 20260904154503 | 31 | 344 | 8.0 | 19.3 | 0.00 | 0.00 | 0.00 | 61 | 1011.3 |
| 20260904154004 | 30 | 236 | 4.8 | 16.1 | 0.00 | 0.00 | 0.00 | 61 | 1011.6 |
| 20260904153504 | 30 | 336 | 4.8 | 8.0 | 0.00 | 0.00 | 0.00 | 63 | 1011.7 |
| 20260904153004 | 30 | 29 | 4.8 | 19.3 | 0.00 | 0.00 | 0.00 | 62 | 1011.7 |
| 20260904152503 | 30 | 26 | 9.7 | 19.3 | 0.00 | 0.00 | 0.00 | 61 | 1011.8 |
| 20260904152004 | 30 | 343 | 11.3 | 22.5 | 0.00 | 0.00 | 0.00 | 61 | 1011.7 |
| 20260904151503 | 30 | 0 | 6.4 | 19.3 | 0.00 | 0.00 | 0.00 | 63 | 1011.7 |
| 20260904151004 | 30 | 15 | 4.8 | 16.1 | 0.00 | 0.00 | 0.00 | 63 | 1011.9 |
| 20260904150503 | 30 | 312 | 11.3 | 22.5 | 0.00 | 0.00 | 0.00 | 62 | 1011.8 |
| 20260904150004 | 30 | 317 | 9.7 | 20.9 | 0.00 | 0.00 | 0.00 | 65 | 1011.8 |
| 20260904145504 | 30 | 7 | 3.2 | 16.1 | 0.00 | 0.00 | 0.00 | 65 | 1011.7 |
| 20260904145004 | 30 | 11 | 8.0 | 16.1 | 0.00 | 0.00 | 0.00 | 65 | 1011.8 |
| 20260904144503 | 30 | 336 | 8.0 | 19.3 | 0.00 | 0.00 | 0.00 | 67 | 1011.7 |
| 20260904144004 | 30 | 316 | 4.8 | 16.1 | 0.00 | 0.00 | 0.00 | 67 | 1011.7 |
| 20260904143503 | 30 | 321 | 8.0 | 19.3 | 0.00 | 0.00 | 0.00 | 68 | 1011.7 |
| 20260904143004 | 29 | 308 | 8.0 | 19.3 | 0.00 | 0.00 | 0.00 | 69 | 1011.7 |
| 20260904142503 | 29 | 305 | 4.8 | 8.0 | 0.00 | 0.00 | 0.00 | 71 | 1011.7 |
| 20260904142004 | 29 | 316 | 4.8 | 11.3 | 0.00 | 0.00 | 0.00 | 71 | 1011.6 |
| 20260904141503 | 29 | 350 | 3.2 | 19.3 | 0.00 | 0.00 | 0.00 | 72 | 1011.7 |
| 20260904141003 | 28 | 317 | 4.8 | 11.3 | 0.00 | 0.00 | 0.00 | 72 | 1011.7 |
| 20260904140503 | 28 | 316 | 9.7 | 20.9 | 0.00 | 0.00 | 0.00 | 71 | 1011.7 |
| 20260904140003 | 28 | 321 | 9.7 | 20.9 | 0.00 | 0.00 | 0.00 | 71 | 1011.6 |
| 20260904135503 | 28 | 325 | 9.7 | 19.3 | 0.00 | 0.00 | 0.00 | 72 | 1011.6 |
| 20260904135003 | 28 | 327 | 12.9 | 20.9 | 0.00 | 0.00 | 0.00 | 73 | 1011.5 |
| 20260904134503 | 28 | 321 | 9.7 | 22.5 | 0.00 | 0.00 | 0.00 | 73 | 1011.5 |
| 20260904134004 | 28 | 326 | 4.8 | 16.1 | 0.00 | 0.00 | 0.00 | 74 | 1011.4 |
| 20260904133504 | 28 | 334 | 8.0 | 14.5 | 0.00 | 0.00 | 0.00 | 76 | 1011.3 |
| 20260904133004 | 28 | 327 | 3.2 | 14.5 | 0.00 | 0.00 | 0.00 | 76 | 1011.2 |
| 20260904132503 | 27 | 260 | 6.4 | 29.0 | 0.00 | 0.00 | 0.00 | 77 | 1011.3 |
| 20260904132003 | 27 | 298 | 4.8 | 14.5 | 0.00 | 0.00 | 0.00 | 78 | 1011.3 |
| 20260904131503 | 27 | 315 | 4.8 | 14.5 | 0.00 | 0.00 | 0.00 | 79 | 1011.4 |
| 20260904131004 | 27 | 323 | 8.0 | 16.1 | 0.00 | 0.00 | 0.00 | 80 | 1011.4 |
| 20260904130503 | 27 | 290 | 4.8 | 19.3 | 0.00 | 0.00 | 0.00 | 82 | 1011.4 |
| 20260904130004 | 26 | 310 | 4.8 | 19.3 | 0.00 | 0.00 | 0.00 | 83 | 1011.3 |
| 20260904125504 | 26 | 323 | 8.0 | 22.5 | 0.00 | 0.00 | 0.00 | 84 | 1011.3 |
| 20260904125003 | 26 | 289 | 8.0 | 14.5 | 0.00 | 0.00 | 0.00 | 85 | 1011.2 |
| 20260904124503 | 26 | 317 | 4.8 | 12.9 | 0.00 | 0.00 | 0.00 | 86 | 1011.3 |
| 20260904124004 | 26 | 349 | 4.8 | 14.5 | 0.00 | 0.00 | 0.00 | 87 | 1011.3 |
| 20260904123504 | 25 | 14 | 3.2 | 12.9 | 0.00 | 0.00 | 0.00 | 88 | 1011.3 |
| 20260904123004 | 25 | 313 | 3.2 | 14.5 | 0.00 | 0.00 | 0.00 | 88 | 1011.3 |
| 20260904122503 | 25 | 229 | 4.8 | 12.9 | 0.00 | 0.00 | 0.00 | 89 | 1011.2 |
| 20260904122004 | 25 | 304 | 3.2 | 12.9 | 0.00 | 0.00 | 0.00 | 89 | 1011.1 |
| 20260904121504 | 25 | 300 | 1.6 | 9.7 | 0.00 | 0.00 | 0.00 | 89 | 1011.2 |
| 20260904121004 | 25 | 301 | 3.2 | 9.7 | 0.00 | 0.00 | 0.00 | 89 | 1011.1 |
| 20260904120503 | 25 | 272 | 1.6 | 9.7 | 0.00 | 0.00 | 0.00 | 89 | 1011.3 |
| 20260904120003 | 25 | 236 | 3.2 | 8.0 | 0.00 | 0.00 | 0.00 | 89 | 1011.4 |
| 20260904115504 | 25 | 312 | 3.2 | 9.7 | 0.00 | 0.00 | 0.00 | 89 | 1011.3 |
| 20260904115003 | 25 | 250 | 3.2 | 12.9 | 0.00 | 0.00 | 0.00 | 89 | 1011.2 |
| 20260904114504 | 24 | 266 | 3.2 | 12.9 | 0.00 | 0.00 | 0.00 | 89 | 1011.0 |
| 20260904114004 | 24 | 302 | 1.6 | 8.0 | 0.00 | 0.00 | 0.00 | 88 | 1011.0 |
| 20260904113503 | 24 | 187 | 1.6 | 4.8 | 0.00 | 0.00 | 0.00 | 88 | 1011.0 |
| 20260904113004 | 24 | 197 | 1.6 | 4.8 | 0.00 | 0.00 | 0.00 | 88 | 1010.9 |
| 20260904112503 | 24 | 232 | 0.0 | 4.8 | 0.00 | 0.00 | 0.00 | 88 | 1010.8 |
| 20260904112004 | 24 | 225 | 1.6 | 3.2 | 0.00 | 0.00 | 0.00 | 88 | 1010.7 |
| 20260904111503 | 24 | 225 | 0.0 | 1.6 | 0.00 | 0.00 | 0.00 | 88 | 1010.6 |
| 20260904111004 | 24 | 225 | 1.6 | 4.8 | 0.00 | 0.00 | 0.00 | 88 | 1010.6 |
| 20260904110504 | 24 | 244 | 0.0 | 3.2 | 0.00 | 0.00 | 0.00 | 87 | 1010.6 |
| 20260904110003 | 24 | 244 | 0.0 | 3.2 | 0.00 | 0.00 | 0.00 | 87 | 1010.6 |
| 20260904105504 | 24 | 244 | 0.0 | 0.0 | 0.00 | 0.00 | 0.00 | 87 | 1010.5 |
| 20260904105004 | 24 | 244 | 0.0 | 1.6 | 0.00 | 0.00 | 0.00 | 87 | 1010.5 |
| 20260904104504 | 24 | 246 | 1.6 | 4.8 | 0.00 | 0.00 | 0.00 | 87 | 1010.4 |
| 20260904104004 | 24 | 229 | 0.0 | 3.2 | 0.00 | 0.00 | 0.00 | 87 | 1010.3 |
| 20260904103504 | 24 | 229 | 1.6 | 4.8 | 0.00 | 0.00 | 0.00 | 87 | 1010.3 |
| 20260904103003 | 24 | 219 | 0.0 | 3.2 | 0.00 | 0.00 | 0.00 | 87 | 1010.4 |
| 20260904102504 | 24 | 213 | 1.6 | 4.8 | 0.00 | 0.03 | 0.00 | 87 | 1010.4 |
| 20260904102003 | 25 | 107 | 0.0 | 1.6 | 0.00 | 0.03 | 0.00 | 87 | 1010.4 |
| 20260904101504 | 25 | 107 | 0.0 | 4.8 | 0.00 | 0.03 | 0.00 | 88 | 1010.4 |
| 20260904101004 | 25 | 177 | 1.6 | 4.8 | 0.00 | 0.05 | 0.00 | 88 | 1010.4 |
| 20260904100503 | 25 | 207 | 1.6 | 4.8 | 0.00 | 0.08 | 0.00 | 88 | 1010.3 |
| 20260904100004 | 25 | 234 | 1.6 | 4.8 | 0.00 | 0.13 | 0.00 | 88 | 1010.2 |
| 20260904095503 | 25 | 249 | 3.2 | 11.3 | 0.00 | 0.15 | 0.00 | 88 | 1010.3 |
| 20260904095003 | 25 | 232 | 1.6 | 9.7 | 0.00 | 0.20 | 0.00 | 88 | 1010.3 |
| 20260904094503 | 25 | 225 | 3.2 | 9.7 | 0.00 | 0.25 | 0.00 | 88 | 1010.3 |
| 20260904094004 | 25 | 223 | 3.2 | 9.7 | 0.00 | 0.28 | 0.00 | 88 | 1010.3 |
| 20260904093503 | 25 | 236 | 3.2 | 4.8 | 0.00 | 0.30 | 0.00 | 88 | 1010.3 |
| 20260904093004 | 25 | 286 | 3.2 | 9.7 | 0.00 | 0.30 | 0.00 | 88 | 1010.4 |
| 20260904092504 | 25 | 125 | 1.6 | 4.8 | 0.00 | 0.30 | 0.00 | 87 | 1010.4 |
| 20260904092003 | 25 | 197 | 1.6 | 3.2 | 0.00 | 0.30 | 0.00 | 87 | 1010.4 |